This is the latest recevied weather packets stored in our database for station/object N6RDS-8. If no packets are shown the sender has not sent any weather packets the latest 1 day(s).
| Time | Temp. | Humidity | Pressure | Rain* | Wind** | Luminosity | Snow |
|---|---|---|---|---|---|---|---|
| 1777978927 | 12.22° C | 93% | 1016.4 hPa | 0 mm | 0.45 m/s, 109° | 0 W/m² | - |
| 1777978623 | 12.22° C | 93% | 1015.9 hPa | 0 mm | 0 m/s | 0 W/m² | - |
| 1777978319 | 12.22° C | 93% | 1016.4 hPa | 0 mm | 0 m/s | 0 W/m² | - |
| 1777978016 | 12.78° C | 93% | 1016.5 hPa | 0 mm | 0.45 m/s, 120° | 0 W/m² | - |
| 1777977713 | 12.78° C | 93% | 1016.9 hPa | 0 mm | 0 m/s | 0 W/m² | - |
| 1777977409 | 12.78° C | 93% | 1016.8 hPa | 1.78 mm | 0.45 m/s, 107° | 0 W/m² | - |
| 1777977107 | 12.22° C | 93% | 1017 hPa | 1.78 mm | 0.45 m/s, 123° | 0 W/m² | - |
| 1777976805 | 12.22° C | 93% | 1016.9 hPa | 1.78 mm | 0.45 m/s, 75° | 0 W/m² | - |
| 1777976502 | 12.22° C | 92% | 1017 hPa | 0 mm | 0.45 m/s, 89° | 0 W/m² | - |
| 1777976201 | 12.78° C | 92% | 1017.2 hPa | 0 mm | 0 m/s | 0 W/m² | - |
| 1777975897 | 12.78° C | 92% | 1017.5 hPa | 1.78 mm | 0 m/s | 0 W/m² | - |
| 1777975593 | 12.78° C | 91% | 1017.4 hPa | 1.78 mm | 0.45 m/s, 86° | 0 W/m² | - |
| 1777975290 | 12.78° C | 91% | 1017.8 hPa | 0 mm | 0 m/s | 0 W/m² | - |
| 1777974986 | 12.78° C | 90% | 1017.7 hPa | 0 mm | 0.45 m/s, 90° | 0 W/m² | - |
| 1777974683 | 12.78° C | 90% | 1017.7 hPa | 0 mm | 1.34 m/s, 38° | 0 W/m² | - |
| 1777974380 | 12.78° C | 90% | 1017.8 hPa | 0 mm | 1.34 m/s, 21° | 0 W/m² | - |
| 1777974076 | 12.78° C | 90% | 1017.8 hPa | 0 mm | 0.45 m/s, 98° | 0 W/m² | - |
| 1777973772 | 12.78° C | 89% | 1017.9 hPa | 0 mm | 1.34 m/s, 50° | 0 W/m² | - |
| 1777973469 | 12.78° C | 89% | 1018 hPa | 0 mm | 0.89 m/s, 12° | 0 W/m² | - |
| 1777973167 | 13.33° C | 88% | 1018.2 hPa | 0 mm | 0 m/s | 0 W/m² | - |
| 1777972866 | 13.33° C | 87% | 1018 hPa | 0 mm | 0.89 m/s, 47° | 0 W/m² | - |
| 1777972562 | 13.33° C | 86% | 1018 hPa | 0 mm | 0.89 m/s, 314° | 0 W/m² | - |
| 1777972260 | 13.33° C | 85% | 1018.1 hPa | 0 mm | 0.45 m/s, 93° | 0 W/m² | - |
| 1777971958 | 13.89° C | 84% | 1018.1 hPa | 0 mm | 1.34 m/s, 75° | 0 W/m² | - |
| 1777971655 | 13.89° C | 82% | 1018.2 hPa | 0 mm | 0.89 m/s, 102° | 0 W/m² | - |
* Rain latest hour (hover to see other rain measurements)
** Current wind speed in m/s (hover to see current wind gust speed)